Regional Weather Roundup
Issued by NWS Kansas City/Pleasant Hill, MO

Home | Current Version | Previous Version | Graphics & Text | Print | Product List | Glossary Off
Versions: 1 2 3 4 5 6 7 8 9 10 11 12 13 14 15 16 17 18 19 20 21 22 23 24 25 26 27 28 29 30 31 32 33 34 35 36 37 38 39 40 41 42 43 44 45 46 47 48 49 50

000
ASUS43 KEAX 210204
RWREAX

WEATHER ROUNDUP FOR EASTERN KANSAS AND NORTHWEST MISSOURI
NATIONAL WEATHER SERVICE KANSAS CITY/PLEASANT HILL MO
900 PM CDT MON APR 20 2015

KSZ040-057-103>105-MOZ028-029-037-043-210300-
...KANSAS CITY METROPOLITAN AREA...

CITY           SKY/WX    TMP DP  RH WIND       PRES   REMARKS
K.C. INTL      PTCLDY    49  27  42 SW6       29.84R
K.C. DOWNTOWN  PTCLDY    54  26  34 SW6       29.84R
LEES SUMMIT    CLEAR     51  26  37 SW5       29.85R
OLATHE - IXD   PTCLDY    49  30  48 SW3       29.87R
OLATHE - OJC   CLEAR     51  28  41 SW3       29.85S
LAWRENCE       PTCLDY    48  31  51 CALM      29.86R

$$

MOZ001>008-011>017-020>025-030>033-038>040-044>046-053-054-210300-
...NORTHERN AND CENTRAL MISSOURI...

CITY           SKY/WX    TMP DP  RH WIND       PRES   REMARKS
ST. JOSEPH     PTCLDY    50  28  42 W9        29.82R
MOSBY          CLEAR     52  27  37 SW3       29.83R
WARRENSBURG    CLEAR     48  28  46 SW6       29.86R
WHITEMAN AFB   CLEAR     49  28  45 SW7       29.85R
CLINTON        CLEAR     52  32  46 SW6       29.88S
SEDALIA        CLEAR     50  28  42 SW6       29.86R
WARSAW         NOT AVBL
MARSHALL       CLEAR     54  32  43 SW7       29.84R
CHILLICOTHE      N/A     52  25  35 W3        29.81R
MOBERLY        CLEAR     46  25  42 SW8       29.81R
KIRKSVILLE     PTCLDY    48  25  40 SW5       29.77R

$$

MOZ041-047>049-056>058-063>065-088>090-097-210300-
...EASTERN AND SOUTHERN MISSOURI...

CITY           SKY/WX    TMP DP  RH WIND       PRES   REMARKS
ST. LOUIS INTL PTCLDY    54  29  38 W13       29.83R
SPIRIT OF STL  CLEAR     45  34  65 SW7       29.83R
COLUMBIA       CLEAR     47  28  47 SW8       29.83S
JEFFERSON CITY CLEAR     50  27  40 SW3       29.85R
MEXICO         CLEAR     48  34  57 W7        29.81S
HANNIBAL       CLEAR     48  25  40 SW7       29.78S
ROLLA          CLEAR     46  29  51 W6        29.85R
LEBANON        CLEAR     50  25  37 W3        29.90R
OSAGE BEACH    CLEAR     52  19  28 W3        29.88R
SPRINGFIELD    CLEAR     45  31  58 SW6       29.91R
BRANSON        CLEAR     50  28  43 W6        29.94R
NEVADA         CLEAR     50  30  46 SW5       29.91S
JOPLIN         CLEAR     50  35  56 MISG      29.93R
WEST PLAINS    CLEAR     48  30  49 W5        29.91R

$$

IAZ060-094-KSZ022-034>040-054-083-096-NEZ052-066-093-210300-
...KANSAS...SOUTHEAST NEBRASKA AND IOWA...

CITY           SKY/WX    TMP DP  RH WIND       PRES   REMARKS
TOPEKA         MOCLDY    54  28  36 SW6       29.86R
MANHATTAN      CLEAR     52  27  38 W5        29.86R
EMPORIA        CLEAR     53  30  41 W5        29.88R
CHANUTE        CLEAR     49  39  68 SW5       29.90S
WICHITA        PTCLDY    53  35  50 S3        29.90S
OMAHA          PTCLDY    51  20  29 NW12      29.77R
LINCOLN        PTCLDY    52  23  32 W6        29.82R
FALLS CITY     PTCLDY    50  26  39 W9        29.81R
LAMONI         CLEAR     47  26  44 W10       29.76R
DES MOINES     CLEAR     48  18  30 W8        29.71R

$$




USA.gov is the U.S. government's official web portal to all federal, state and local government web resources and services.